Temperature
1 2 2 2 2 2 2 2 3 4 4 5 6 5 6 6 6 6 6 7 7 8 9 9 10 11 12 13 13 13 14 14 14 14 14 14 13 13 13 12 12 12 11 11
0 1 2 2 3 3 3 3 3 3 4 5 5 5 5 5 5 5 5 6 6 7 8 9 10 11 12 12 13 13 13 13 13 13 13 13 13 13 12 12 12 11 11 11
-0 1 1 2 3 3 3 3 3 3 4 5 5 5 5 5 4 4 5 5 6 6 7 8 9 10 11 12 12 12 13 13 13 13 12 12 12 12 12 11 11 11 11 10
-0 -0 0 2 3 3 3 3 3 3 4 4 4 5 5 5 4 4 5 5 5 6 7 8 9 10 10 11 12 12 12 12 12 12 12 12 12 11 11 11 11 11 10 10
-1 -1 0 2 3 3 2 3 3 3 4 4 4 4 4 5 4 4 5 5 5 6 7 7 8 9 10 10 11 11 11 12 12 12 12 12 11 11 11 11 10 10 10 10
-1 -0 1 2 3 3 3 2 3 3 3 3 3 3 3 5 4 4 5 5 5 6 6 7 8 9 9 10 10 10 11 11 12 11 11 11 11 11 11 11 11 10 10 10
-1 -0 1 2 2 3 2 2 3 2 2 2 2 3 4 4 4 4 5 5 5 6 6 6 7 8 8 9 9 10 10 10 11 11 11 11 11 11 10 10 10 10 9 9
-1 -1 1 2 2 2 2 3 3 3 3 3 3 3 4 4 4 4 5 5 5 5 6 6 7 7 8 8 9 9 9 10 10 10 10 10 10 10 10 9 9 9 9 9
-0 1 2 2 2 3 3 2 3 3 3 3 2 3 3 3 3 4 4 5 5 5 5 6 6 7 7 7 8 8 8 9 9 9 9 10 9 9 9 9 9 9 9 8
-1 -0 1 2 2 2 3 2 2 2 2 2 2 2 2 3 3 3 4 4 5 5 5 5 6 6 6 7 7 8 8 8 8 9 9 9 9 9 9 9 9 9 8 8
-1 -0 0 1 2 2 2 2 2 2 2 2 2 2 2 2 3 3 3 4 4 4 5 5 5 6 6 6 6 7 7 7 8 8 8 8 8 8 9 9 9 9 9 9
-0 0 -0 0 2 2 1 1 1 1 1 2 1 1 2 2 2 3 3 4 4 4 4 5 5 5 6 6 6 6 7 7 7 7 8 8 8 8 8 8 8 8 9 8
1 1 1 1 1 1 1 1 1 1 1 1 1 1 1 1 2 2 3 3 3 4 4 4 5 5 5 6 6 6 6 7 7 7 7 7 7 7 7 7 7 7 7 7
0 0 -0 -0 -0 0 -0 -0 0 0 0 0 1 1 1 1 1 2 3 3 3 3 4 4 4 5 5 5 5 6 6 6 6 6 7 7 7 7 7 7 7 6 7 7
-1 -1 -1 -1 -1 -1 -1 -1 -1 -0 -0 0 0 0 0 0 1 2 2 2 2 3 3 4 4 4 5 5 5 5 6 6 6 6 6 7 7 7 7 7 7 6 6 6
-1 -1 -1 -1 -1 -1 -1 -2 -2 -1 -1 -1 -0 -0 -0 -0 0 1 1 2 2 2 3 3 4 4 5 5 5 5 5 6 6 6 6 6 6 6 6 6 6 6 6 6
-2 -2 -2 -2 -2 -2 -2 -2 -2 -2 -2 -1 -1 -1 -1 -0 0 1 1 2 2 2 3 3 4 4 4 5 5 5 5 5 6 6 6 6 6 6 6 6 6 6 6 6
-2 -2 -2 -3 -3 -3 -2 -2 -2 -2 -2 -2 -2 -1 -1 -1 -0 0 1 1 2 2 3 3 3 3 4 4 4 5 5 5 5 6 6 6 6 6 6 6 6 6 5 5
-2 -2 -3 -3 -3 -3 -3 -3 -3 -3 -2 -2 -2 -2 -1 -1 -1 -0 0 0 1 2 2 3 3 3 4 4 4 5 5 5 5 5 5 5 5 5 6 5 5 5 5 4
-3 -3 -3 -3 -3 -3 -3 -3 -3 -3 -3 -3 -2 -2 -2 -1 -1 -1 -1 -0 1 1 2 2 3 3 3 4 4 4 5 5 5 5 5 5 5 5 5 5 5 5 4 4
-4 -4 -4 -4 -4 -4 -4 -4 -4 -4 -3 -3 -3 -3 -2 -2 -1 -1 -1 -1 1 1 1 2 2 3 3 3 4 4 4 4 4 5 5 5 4 4 4 4 4 4 4 4
-4 -5 -5 -5 -5 -5 -4 -4 -4 -4 -4 -4 -4 -3 -3 -3 -2 -2 -1 -1 0 0 1 1 2 2 3 3 3 3 4 4 4 4 4 4 4 4 4 4 4 4 4 4
-5 -5 -6 -6 -6 -6 -5 -5 -5 -5 -5 -4 -4 -4 -4 -3 -3 -3 -2 -1 -1 -0 -0 1 1 2 2 2 3 3 4 4 4 4 4 4 4 4 4 4 4 4 4 3
-6 -6 -6 -6 -7 -6 -6 -5 -5 -5 -5 -5 -5 -4 -4 -4 -3 -2 -2 -1 -1 -1 -0 0 1 1 2 2 2 3 3 3 3 4 4 4 4 4 4 4 4 4 3 3
-7 -7 -7 -7 -7 -7 -7 -7 -6 -6 -6 -5 -5 -4 -4 -4 -3 -3 -2 -2 -1 -1 -1 -0 0 1 1 2 2 3 3 3 3 3 3 3 3 3 3 3 3 3 3 3
-8 -8 -8 -8 -8 -8 -8 -7 -7 -7 -7 -6 -5 -5 -4 -4 -3 -3 -3 -2 -2 -1 -1 -1 -0 0 1 1 2 2 2 3 2 3 3 3 3 3 3 3 3 3 2 2
-8 -8 -8 -8 -8 -8 -8 -8 -8 -7 -7 -7 -6 -5 -5 -4 -4 -3 -3 -2 -2 -1 -1 -1 -0 0 1 1 1 1 2 2 2 2 2 2 2 2 2 2 2 2 2 2
Wind_Speed
12 13 11 13 14 12 11 11 11 12 14 17 14 13 12 11 11 12 12 11 9 8 6 5 5 5 6 7 8 10 12 13 14 14 13 13 13 13 13 14 14 14 14 13
9 10 11 16 17 16 15 13 14 16 18 13 10 8 8 9 9 11 12 12 11 9 7 6 5 4 5 7 8 10 12 12 12 12 13 13 14 13 13 13 13 14 14 14
7 7 8 9 9 10 8 7 9 13 13 9 9 10 8 7 8 10 11 11 11 9 8 7 6 5 5 7 7 9 10 10 11 13 13 14 14 14 14 14 13 14 14 14
5 4 7 8 4 6 9 9 9 10 10 9 10 9 6 5 6 9 10 11 10 9 8 7 6 4 4 5 7 9 10 10 11 12 13 13 14 14 14 12 12 13 13 13
3 5 9 8 5 3 5 7 7 9 10 8 8 6 5 5 6 8 9 9 9 7 7 6 5 3 2 4 6 8 10 11 11 12 13 14 14 14 12 11 11 11 12 13
4 5 7 6 4 4 2 6 5 5 7 7 6 6 8 9 9 10 10 9 8 6 5 5 4 2 3 4 6 8 9 10 10 12 13 14 14 12 10 11 11 11 11 12
9 8 9 7 5 1 1 6 5 5 6 5 4 6 9 10 10 10 9 9 7 6 5 5 3 1 2 4 6 6 6 7 9 10 12 12 11 11 12 11 11 10 11 10
6 7 9 4 1 3 6 5 6 6 6 7 8 9 9 9 11 11 10 9 7 6 6 5 3 1 2 3 3 4 6 7 8 9 9 11 12 11 12 13 12 11 10 9
8 9 6 3 6 6 5 6 7 7 8 8 9 9 9 10 11 11 10 9 7 5 6 5 3 1 2 2 2 4 7 8 8 9 9 11 13 13 12 12 11 10 10 10
7 10 9 8 7 7 7 8 9 9 9 8 10 10 10 10 10 10 10 8 7 6 5 5 4 3 3 2 3 5 7 8 8 9 9 10 10 11 11 11 11 11 11 11
9 10 9 8 8 8 9 9 10 10 9 8 9 11 10 10 11 10 10 8 6 6 6 6 4 4 2 3 4 5 7 8 8 8 9 9 8 8 9 8 11 13 12 12
10 9 7 9 8 9 10 10 11 11 11 10 9 11 11 10 10 9 10 8 7 7 6 5 4 4 3 3 5 6 7 8 7 7 7 8 8 7 6 8 11 12 13 14
13 11 10 11 11 10 10 11 11 10 11 12 11 10 10 10 10 9 9 8 8 8 7 5 5 5 4 3 5 6 7 8 7 7 8 8 8 9 8 7 10 12 16 17
10 8 9 10 11 11 11 11 10 10 10 10 10 9 9 9 9 10 10 9 8 8 6 5 5 5 4 4 5 6 7 7 8 7 8 8 8 9 9 10 9 7 10 16
8 8 10 10 10 9 9 9 9 10 10 10 9 9 9 9 10 10 9 8 7 6 6 5 5 5 4 4 5 6 7 7 7 7 7 8 8 8 9 10 10 9 9 11
6 6 7 8 9 10 9 9 9 11 10 10 9 9 9 10 11 10 8 6 6 7 6 5 6 5 4 5 5 5 6 9 8 8 8 8 8 9 10 10 10 11 11 11
5 6 6 7 9 10 9 9 9 10 10 10 10 10 10 10 10 9 8 7 7 7 6 6 5 4 4 5 5 5 6 8 10 8 8 8 9 10 10 10 11 10 9 12
6 7 7 8 9 10 10 10 9 10 10 11 11 10 10 10 10 10 9 8 7 6 5 5 4 4 4 4 4 5 6 7 8 8 8 8 9 9 10 10 11 11 10 12
4 5 6 7 8 9 10 10 10 10 10 10 10 10 10 10 10 9 8 8 7 7 6 3 4 3 4 4 5 5 7 8 8 8 8 11 10 9 9 10 11 11 11 11
5 6 7 8 9 9 10 10 10 10 10 9 10 11 11 10 8 8 8 9 8 6 5 5 4 4 4 4 5 5 7 9 9 9 9 9 9 9 10 10 11 11 11 11
8 9 9 9 10 10 10 10 10 11 11 10 10 11 11 10 8 8 8 9 7 5 5 6 4 4 4 4 5 6 7 8 9 9 9 10 10 10 10 11 11 11 11 11
7 8 9 10 10 11 10 9 10 12 12 11 11 11 11 10 9 8 9 8 7 7 5 4 4 5 6 6 5 6 8 8 8 9 9 10 10 11 11 11 11 11 11 11
8 9 10 10 11 11 11 10 10 11 11 12 12 11 11 10 8 8 9 6 4 7 6 5 6 8 8 5 5 7 8 9 9 9 9 9 10 11 11 12 11 11 11 11
9 9 11 10 10 11 12 11 10 10 10 11 11 11 10 9 8 7 7 9 9 9 5 6 8 8 7 5 6 7 8 8 8 9 9 9 9 10 10 11 11 11 11 12
9 10 10 10 10 9 11 11 10 10 10 9 9 9 8 7 7 7 6 6 8 7 4 6 8 8 6 5 6 7 7 8 8 9 9 10 10 10 10 10 11 11 11 11
9 9 9 9 9 9 9 9 8 8 8 9 8 7 6 5 6 6 5 5 5 6 4 4 5 5 5 5 6 7 7 8 9 8 9 10 11 11 10 11 12 11 11 11
9 8 8 8 8 8 8 8 9 9 8 9 9 8 6 5 5 4 4 4 3 3 3 3 3 4 4 5 6 6 7 7 7 8 9 9 10 10 11 12 11 11 11 12
Wind_Direction
259 266 265 265 270 265 250 244 250 264 270 283 300 307 315 323 332 337 339 339 334 325 315 306 290 254 217 208 197 185 183 186 191 189 186 181 179 180 179 179 179 177 176 177
276 269 268 269 265 259 254 250 251 265 274 277 287 300 311 320 329 331 331 333 332 327 322 312 299 273 229 207 195 184 184 188 182 176 176 177 178 176 174 176 174 172 175 176
277 299 302 269 250 243 242 239 239 255 267 293 301 306 306 309 318 319 322 327 328 320 314 308 298 277 237 207 189 183 182 180 175 173 175 177 174 173 174 175 172 173 175 175
280 318 263 253 246 240 245 253 249 260 278 290 291 294 287 291 310 316 320 324 322 316 314 314 305 287 241 196 181 179 176 176 175 174 174 172 172 175 174 171 172 173 173 173
251 266 273 284 276 247 245 268 263 261 280 295 306 311 293 305 313 307 307 310 308 304 303 309 307 290 214 183 177 178 179 179 176 174 172 171 174 175 168 165 167 168 169 167
231 251 259 268 288 294 264 274 294 286 296 307 334 319 301 314 313 310 312 314 313 315 317 320 311 286 183 177 178 187 188 182 176 172 172 173 173 167 160 161 161 158 160 164
234 245 264 270 290 12 196 273 309 300 300 310 286 268 290 307 309 308 311 313 318 323 322 311 301 263 193 185 195 193 179 171 169 170 170 166 161 157 155 151 150 151 151 153
216 231 253 265 205 209 247 282 291 291 290 292 288 291 300 304 306 311 315 317 317 321 317 314 305 246 219 214 201 173 164 164 165 162 158 156 152 152 151 150 150 149 146 144
214 232 257 243 235 256 267 278 283 283 285 290 294 295 301 303 305 308 307 307 304 303 309 314 312 275 244 238 167 161 161 162 160 154 155 156 155 154 152 154 155 155 154 153
252 260 266 269 269 275 275 276 286 288 288 297 295 293 299 301 303 304 305 299 296 297 299 301 311 301 249 215 172 161 164 162 157 155 155 156 154 157 159 162 160 159 159 157
252 267 281 269 260 270 282 285 288 290 286 286 290 292 292 294 296 298 300 291 281 276 279 282 292 296 258 200 170 166 163 162 160 157 155 154 152 159 162 169 170 167 167 162
250 248 252 271 274 279 283 284 286 289 291 289 284 289 289 288 288 290 292 287 280 274 271 273 277 276 256 203 174 170 167 164 162 157 153 151 144 125 116 143 152 156 156 154
250 265 265 272 278 277 277 283 286 283 284 290 291 286 285 285 288 288 288 285 276 271 266 262 264 264 243 205 181 180 174 166 161 160 157 154 151 147 137 118 124 143 149 150
254 264 272 274 278 284 282 283 285 285 284 285 288 291 290 289 293 290 286 282 278 272 266 257 254 255 235 193 178 177 169 165 164 164 160 158 156 155 152 149 146 137 141 148
258 248 257 276 286 291 293 294 294 294 295 296 296 297 298 298 296 292 290 289 285 273 264 257 254 251 225 187 177 175 171 168 164 160 157 156 153 151 148 147 145 141 134 142
276 276 271 277 285 294 299 300 296 296 299 299 301 302 301 299 295 292 291 291 284 275 265 257 252 247 216 187 179 177 175 171 167 159 154 155 155 153 153 152 150 152 155 152
276 285 286 290 290 293 294 293 294 296 300 302 302 303 303 302 299 295 293 291 282 275 264 255 251 241 214 192 181 179 170 166 164 160 161 160 158 159 158 157 157 158 158 160
246 259 269 276 285 293 296 295 294 296 296 296 299 300 299 297 294 295 298 301 297 291 272 253 243 227 211 198 183 176 171 169 166 163 159 158 157 159 158 157 156 153 149 156
278 281 288 290 290 288 289 292 293 291 292 294 295 294 290 287 287 291 296 296 290 285 279 247 235 224 215 205 192 175 167 162 158 155 154 156 156 157 158 157 157 156 155 156
304 300 297 295 292 289 288 291 293 292 291 290 289 290 288 285 285 287 286 279 270 267 268 254 235 222 214 204 195 176 167 164 161 159 157 159 160 161 160 158 157 157 158 158
302 301 299 297 296 292 288 288 289 289 291 289 285 285 284 284 282 279 280 281 280 266 256 248 233 218 211 205 194 177 169 166 165 164 163 162 162 161 161 160 159 158 158 156
296 296 296 296 295 293 290 288 285 287 289 288 285 281 280 280 279 277 270 266 272 270 264 242 224 217 214 209 187 173 168 166 166 164 165 165 164 165 164 161 160 158 157 155
291 292 293 293 291 290 290 288 286 286 284 283 283 280 276 274 273 273 279 273 260 263 260 240 225 219 214 197 178 173 170 168 168 168 168 168 167 165 163 161 160 157 156 155
292 293 293 294 294 292 291 291 288 285 282 281 279 276 273 274 273 263 262 267 267 266 256 239 228 218 206 187 174 172 171 170 168 167 166 164 161 159 159 158 156 155 155 152
289 290 291 294 293 289 288 292 292 289 286 284 281 276 269 261 262 267 265 257 255 259 250 231 223 212 197 179 175 173 170 170 166 162 161 159 159 158 157 156 155 154 155 156
287 287 285 283 283 286 289 290 289 289 290 291 290 285 276 267 259 260 261 253 241 246 241 227 208 195 181 170 166 163 160 159 160 160 158 156 155 155 154 154 151 154 154 153
286 286 288 289 289 288 287 285 284 285 285 285 287 288 282 274 265 258 253 250 240 230 219 203 185 171 162 159 157 153 151 151 153 153 153 153 153 154 153 151 152 151 150 151
Height
1432 1427 1426 1422 1418 1416 1416 1412 1409 1397 1391 1381 1378 1376 1373 1370 1366 1363 1359 1355 1352 1349 1348 1347 1347 1349 1351 1355 1360 1364 1369 1375 1380 1387 1394 1400 1407 1413 1419 1425 1431 1437 1442 1447
1429 1422 1420 1415 1409 1407 1405 1403 1399 1394 1387 1379 1376 1374 1371 1369 1366 1362 1359 1355 1351 1348 1346 1345 1344 1345 1348 1351 1355 1359 1364 1369 1375 1381 1388 1394 1401 1407 1414 1420 1425 1431 1436 1442
1428 1422 1417 1409 1399 1397 1396 1392 1392 1388 1382 1377 1374 1372 1369 1367 1365 1362 1358 1354 1350 1347 1345 1343 1342 1342 1344 1347 1351 1355 1359 1364 1370 1376 1382 1388 1395 1402 1408 1414 1420 1425 1431 1437
1429 1426 1421 1399 1391 1390 1389 1387 1385 1382 1378 1375 1372 1369 1367 1365 1362 1359 1355 1352 1348 1345 1343 1341 1340 1340 1341 1344 1347 1351 1355 1360 1365 1371 1377 1383 1390 1396 1402 1408 1414 1420 1426 1431
1429 1425 1412 1396 1390 1388 1388 1383 1379 1378 1374 1372 1369 1365 1362 1361 1359 1357 1353 1350 1347 1344 1342 1340 1338 1338 1338 1341 1344 1347 1351 1356 1361 1366 1372 1378 1384 1390 1397 1403 1409 1415 1421 1427
1425 1422 1408 1392 1386 1383 1385 1383 1377 1375 1373 1370 1368 1368 1362 1358 1356 1353 1350 1347 1344 1342 1339 1338 1337 1336 1337 1338 1341 1344 1348 1353 1358 1363 1368 1374 1380 1386 1392 1399 1405 1411 1417 1422
1419 1415 1401 1389 1385 1383 1389 1384 1376 1373 1371 1369 1368 1366 1362 1357 1354 1351 1348 1345 1342 1340 1338 1336 1335 1335 1335 1336 1338 1342 1346 1350 1355 1360 1365 1370 1376 1382 1388 1395 1401 1407 1413 1418
1413 1411 1400 1384 1384 1385 1382 1377 1374 1372 1370 1367 1364 1361 1358 1355 1351 1348 1344 1342 1340 1338 1336 1335 1334 1334 1334 1335 1336 1340 1343 1347 1352 1357 1362 1367 1373 1379 1385 1391 1397 1403 1409 1414
1402 1394 1384 1381 1380 1378 1376 1375 1372 1369 1367 1365 1361 1357 1355 1351 1348 1345 1342 1339 1338 1336 1334 1333 1333 1333 1332 1333 1335 1337 1341 1345 1349 1354 1359 1364 1370 1375 1381 1387 1393 1398 1404 1409
1394 1384 1380 1378 1376 1375 1373 1371 1368 1366 1364 1361 1358 1354 1351 1348 1345 1342 1339 1337 1335 1334 1332 1331 1331 1331 1331 1332 1333 1336 1338 1342 1346 1351 1356 1361 1367 1372 1377 1383 1388 1394 1399 1405
1387 1380 1377 1373 1372 1370 1368 1366 1364 1362 1360 1357 1354 1351 1348 1344 1341 1339 1336 1334 1333 1331 1329 1328 1328 1328 1329 1330 1332 1334 1336 1339 1344 1348 1353 1358 1363 1369 1374 1380 1384 1390 1395 1400
1378 1373 1373 1369 1367 1366 1364 1361 1359 1357 1354 1351 1349 1346 1343 1340 1338 1335 1332 1330 1328 1327 1326 1326 1325 1325 1326 1327 1329 1331 1334 1337 1341 1345 1350 1355 1360 1366 1373 1378 1384 1390 1395 1399
1369 1367 1367 1364 1362 1361 1358 1356 1353 1351 1349 1346 1343 1341 1338 1336 1333 1331 1328 1326 1325 1323 1323 1322 1322 1322 1323 1324 1326 1329 1331 1334 1338 1342 1347 1351 1357 1362 1368 1375 1381 1387 1392 1397
1364 1364 1361 1358 1357 1355 1353 1350 1348 1345 1343 1341 1338 1336 1334 1331 1328 1326 1324 1322 1321 1319 1318 1318 1318 1318 1320 1322 1324 1326 1329 1332 1335 1339 1344 1348 1354 1360 1365 1370 1375 1381 1388 1394
1358 1358 1356 1353 1351 1349 1347 1345 1343 1340 1337 1335 1333 1331 1329 1326 1323 1321 1319 1318 1316 1315 1314 1314 1314 1315 1316 1318 1320 1323 1326 1329 1333 1337 1341 1346 1351 1357 1362 1367 1372 1378 1384 1390
1352 1351 1350 1349 1347 1344 1342 1340 1338 1335 1333 1331 1329 1327 1324 1322 1319 1317 1315 1313 1312 1310 1310 1310 1310 1311 1313 1315 1317 1320 1323 1326 1330 1334 1338 1343 1348 1353 1358 1363 1369 1374 1380 1385
1348 1346 1345 1344 1342 1340 1338 1336 1334 1331 1329 1326 1324 1322 1320 1317 1315 1312 1310 1309 1308 1307 1306 1306 1307 1308 1310 1311 1313 1316 1319 1323 1327 1331 1335 1340 1345 1350 1355 1360 1365 1371 1377 1383
1344 1343 1342 1340 1338 1336 1333 1331 1329 1327 1325 1322 1320 1318 1315 1313 1310 1308 1306 1304 1303 1302 1302 1303 1304 1305 1306 1308 1310 1313 1316 1319 1323 1327 1331 1336 1341 1347 1352 1357 1362 1368 1374 1380
1339 1338 1337 1336 1334 1332 1329 1326 1324 1322 1320 1317 1315 1312 1310 1308 1306 1304 1302 1300 1298 1297 1298 1299 1300 1301 1302 1304 1307 1309 1312 1315 1319 1324 1328 1333 1338 1343 1348 1353 1359 1365 1371 1376
1335 1334 1332 1330 1328 1326 1323 1320 1318 1316 1314 1312 1309 1306 1304 1303 1301 1299 1297 1295 1294 1294 1294 1295 1296 1297 1299 1301 1303 1306 1309 1312 1316 1320 1325 1330 1335 1340 1345 1350 1356 1361 1367 1373
1331 1329 1327 1324 1322 1320 1317 1315 1312 1309 1307 1305 1303 1300 1298 1296 1295 1294 1292 1289 1288 1290 1290 1290 1291 1293 1295 1297 1299 1302 1305 1309 1313 1317 1322 1326 1331 1336 1341 1347 1352 1358 1364 1369
1325 1323 1321 1319 1316 1313 1311 1308 1305 1302 1300 1298 1296 1294 1292 1290 1289 1287 1286 1285 1284 1285 1285 1285 1287 1288 1290 1293 1296 1298 1302 1305 1309 1314 1318 1323 1328 1332 1338 1343 1349 1354 1360 1366
1320 1318 1315 1312 1310 1306 1303 1301 1299 1296 1293 1291 1289 1287 1285 1284 1283 1281 1279 1279 1279 1279 1280 1280 1282 1284 1286 1289 1291 1294 1298 1302 1306 1310 1315 1320 1324 1329 1334 1340 1346 1351 1357 1362
1314 1312 1309 1306 1303 1300 1296 1293 1292 1289 1286 1284 1282 1280 1279 1277 1275 1275 1274 1274 1274 1274 1275 1276 1278 1280 1282 1285 1288 1291 1295 1299 1303 1307 1312 1316 1321 1326 1331 1337 1342 1348 1354 1360
1308 1305 1302 1300 1296 1293 1290 1287 1284 1282 1279 1277 1275 1273 1272 1271 1270 1269 1269 1269 1269 1270 1270 1272 1274 1276 1278 1281 1284 1287 1291 1295 1300 1304 1308 1313 1317 1323 1328 1334 1339 1345 1351 1356
1302 1299 1296 1293 1290 1287 1284 1281 1278 1276 1273 1271 1268 1267 1266 1266 1265 1264 1264 1264 1265 1265 1266 1268 1270 1272 1274 1277 1281 1284 1288 1292 1297 1301 1305 1310 1315 1320 1325 1331 1337 1342 1348 1354
1295 1293 1290 1286 1284 1281 1279 1276 1273 1271 1268 1266 1263 1262 1261 1260 1260 1259 1260 1260 1260 1261 1263 1264 1266 1269 1271 1274 1278 1281 1285 1289 1294 1298 1302 1307 1313 1318 1323 1329 1334 1340 1346 1351